Погода в Плановском

Россия / Кабардино-Балкарская Республика     43°23′50″N   44°11′39″E
темп.,
°C
ветер,
м/с
пор.,
м/с
влажн.,
%
обл.,
%
осадки,
мм/ч
давл.,
гПа
погр.,
м
9 мая, вс
вс900:00+13ююз1185100 0.0 101110
03:00+13з018584 0.0 100910
06:00+14сз2283100 0.0 100863
09:00+18сз35685 0.0 1009709
12:00+20с4460100 0.0 10081390
15:00+13сз91493100 1.3 1011723
18:00+7сз91787100 1.4 1017892
21:00+7сз61386100 2.3 10211054
10 мая, пн
пн1000:00+7сз51382100 0.4 1022866
03:00+7з31077100 0.5 1022717
06:00+7ю4482100 0.1 1023238
09:00+11сз5951100 0.3 10212065
12:00+12сз675192 0.3 10201442
15:00+14ссз554359 0.3 10191961
18:00+9зсз3474100 0.4 1021407
21:00+7зюз2490100 1.1 1022186
11 мая, вт
вт1100:00+7ю348872 0.3 1020156
03:00+5ююв339056 0.3 101959
06:00+6юв238694 0.0 1019109
09:00+12в5658100 0.0 10171240
12:00+14всв4450100 0.0 10161714
15:00+16всв434794 0.0 10161752
18:00+15в23596 0.0 1016128
21:00+11вюв366551 0.0 1018165
12 мая, ср
ср1200:00+8вюв2279100 0.0 101816
03:00+7юв118476 0.0 101710
06:00+8зюз11820 0.0 101869
09:00+14св23630 0.0 1017769
12:00+18всв335218 0.0 10171345
15:00+20всв335120 0.0 10161442
18:00+18всв35640 0.0 1016251
21:00+13вюв33785 0.0 101625
13 мая, чт
чт1300:00+11ююв11860 0.0 101610
03:00+10ю11885 0.0 101611
06:00+12ю11820 0.0 101752
09:00+19всв23595 0.0 1016656
12:00+23всв33505 0.0 10151080
15:00+25в4450100 0.0 10141271
18:00+22всв36638 0.0 1015224
21:00+17юв22745 0.0 101614